Weather History for Glendive, MT

Change the Weather History Date:

Saturday, January 5, 2013

  Actual Average Record
Temperature  
Mean Temperature 21 °F -  
Max Temperature 30 °F 22 °F 64 °F (2012)
Min Temperature 12 °F 6 °F -25 °F (2004)
Degree Days  
Heating Degree Days 44    
Moisture  
Dew Point 14 °F    
Average Humidity 74    
Maximum Humidity 86    
Minimum Humidity 64    
Precipitation  
Precipitation 0.00 in - - ()
Sea Level Pressure  
Sea Level Pressure 30.11 in    
Wind  
Wind Speed 14 mph (West)    
Max Wind Speed 29 mph    
Max Gust Speed 33 mph    
Visibility 10 miles    
Events      
Averages and records for this station are not official NWS values.
T = Trace of Precipitation, MM = Missing Value Source: NWS Daily Summary

Daily Weather History Graph

Daily Weather History Graph

Search for Another Location

Airport:

Trip Planner

Search our weather history database for the weather conditions in past years. The results will help you decide how hot, cold, wet, or windy it might be!

Date:

Astronomy

Jan. 05, 2013 Rise Set
Actual Time 7:45 AM MST 4:24 PM MST
Civil Twilight 7:10 AM MST 4:59 PM MST
Nautical Twilight 6:31 AM MST 5:38 PM MST
Astronomical Twilight 5:54 AM MST 6:15 PM MST
Moon 12:40 AM MST (1/5) 11:27 AM MST (1/5)
Length of Visible Light 9h 49m
Length of Day
8h 39m
Last Quarter, 43% of the Moon is Illuminated
Jan 5
Last Quarter
Jan 11
New
Jan 18
First Quarter
Jan 26
Full
Feb 3
Last Quarter

Hourly Weather History & Observations

Time (MST) Temp. Windchill Dew Point Humidity Pressure Visibility Wind Dir Wind Speed Gust Speed Precip Events Conditions
12:15 AM 28.4 °F 14.4 °F 21.2 °F 74% 29.94 in 10.0 mi WNW 23.0 mph 29.9 mph N/A   Clear
12:35 AM 28.4 °F 14.4 °F 19.4 °F 69% 29.95 in 10.0 mi WNW 23.0 mph 29.9 mph N/A   Clear
12:55 AM 26.6 °F 12.7 °F 19.4 °F 74% 29.96 in 10.0 mi WNW 20.7 mph 29.9 mph N/A   Clear
1:15 AM 26.6 °F 10.6 °F 17.6 °F 69% 29.96 in 10.0 mi NW 28.8 mph 33.4 mph N/A   Clear
1:35 AM 24.8 °F 11.1 °F 15.8 °F 69% 29.98 in 10.0 mi WNW 18.4 mph 31.1 mph N/A   Clear
1:55 AM 23.0 °F 9.6 °F 15.8 °F 74% 29.99 in 10.0 mi WNW 16.1 mph 23.0 mph N/A   Clear
2:15 AM 23.0 °F 7.6 °F 15.8 °F 74% 30.00 in 10.0 mi WNW 21.9 mph 27.6 mph N/A   Clear
2:35 AM 21.2 °F 6.4 °F 12.2 °F 68% 30.01 in 10.0 mi WNW 18.4 mph 25.3 mph N/A   Clear
2:55 AM 21.2 °F 6.4 °F 12.2 °F 68% 30.02 in 10.0 mi WNW 18.4 mph 28.8 mph N/A   Clear
3:15 AM 19.4 °F 4.5 °F 12.2 °F 74% 30.04 in 10.0 mi NW 17.3 mph 24.2 mph N/A   Clear
3:35 AM 19.4 °F 4.5 °F 10.4 °F 68% 30.05 in 10.0 mi NW 17.3 mph 25.3 mph N/A   Clear
3:55 AM 19.4 °F 5.0 °F 10.4 °F 68% 30.05 in 10.0 mi NW 16.1 mph - N/A   Clear
4:15 AM 17.6 °F 2.7 °F 10.4 °F 73% 30.06 in 10.0 mi NW 16.1 mph - N/A   Clear
4:35 AM 17.6 °F 1.7 °F 10.4 °F 73% 30.06 in 10.0 mi WNW 18.4 mph - N/A   Clear
4:55 AM 17.6 °F 3.2 °F 10.4 °F 73% 30.07 in 10.0 mi West 15.0 mph - N/A   Clear
5:15 AM 15.8 °F 0.3 °F 10.4 °F 79% 30.08 in 10.0 mi West 16.1 mph - N/A   Clear
5:35 AM 15.8 °F 0.3 °F 8.6 °F 73% 30.08 in 10.0 mi West 16.1 mph - N/A   Clear
6:35 AM 15.8 °F 0.3 °F 10.4 °F 79% 30.10 in 10.0 mi West 16.1 mph - N/A   Clear
6:55 AM 15.8 °F 2.1 °F 10.4 °F 79% 30.11 in 10.0 mi West 12.7 mph - N/A   Clear
7:15 AM 15.8 °F - 8.6 °F 73% 30.13 in 10.0 mi Calm Calm - N/A   Clear
7:35 AM 15.8 °F - 12.2 °F 86% 30.15 in 10.0 mi Calm Calm - N/A   Clear
8:15 AM 17.6 °F - 10.4 °F 73% 30.16 in 10.0 mi Calm Calm - N/A   Clear
8:55 AM 15.8 °F - 8.6 °F 73% 30.17 in 10.0 mi Calm Calm - N/A   Clear
9:15 AM 19.4 °F 11.5 °F 14.0 °F 80% 30.17 in 10.0 mi WNW 5.8 mph - N/A   Clear
9:35 AM 21.2 °F 13.6 °F 12.2 °F 68% 30.17 in 10.0 mi West 5.8 mph - N/A   Clear
9:55 AM 19.4 °F 12.8 °F 12.2 °F 74% 30.16 in 10.0 mi South 4.6 mph - N/A   Clear
10:15 AM 19.4 °F 10.4 °F 12.2 °F 74% 30.16 in 10.0 mi South 6.9 mph - N/A   Clear
10:55 AM 21.2 °F 10.9 °F 14.0 °F 74% 30.14 in 10.0 mi SSW 9.2 mph - N/A   Clear
11:15 AM 24.8 °F 16.9 °F 15.8 °F 69% 30.14 in 10.0 mi SSW 6.9 mph - N/A   Clear
11:35 AM 24.8 °F 16.1 °F 15.8 °F 69% 30.14 in 10.0 mi SSW 8.1 mph - N/A   Clear
11:55 AM 24.8 °F 15.3 °F 17.6 °F 74% 30.13 in 10.0 mi South 9.2 mph - N/A   Clear
12:15 PM 26.6 °F 20.0 °F 19.4 °F 74% 30.13 in 10.0 mi South 5.8 mph - N/A   Clear
12:35 PM 28.4 °F 24.6 °F 19.4 °F 69% 30.13 in 10.0 mi SW 3.5 mph - N/A   Clear
1:15 PM 30.2 °F 25.4 °F 21.2 °F 69% 30.12 in 10.0 mi WNW 4.6 mph - N/A   Clear
1:35 PM 30.2 °F 26.7 °F 19.4 °F 64% 30.12 in 10.0 mi NW 3.5 mph - N/A   Clear
1:55 PM 30.2 °F 20.8 °F 21.2 °F 69% 30.12 in 10.0 mi WNW 11.5 mph - N/A   Clear
2:15 PM 30.2 °F 18.9 °F 19.4 °F 64% 30.12 in 10.0 mi WNW 16.1 mph 19.6 mph N/A   Clear
2:35 PM 30.2 °F 19.3 °F 21.2 °F 69% 30.13 in 10.0 mi WNW 15.0 mph - N/A   Clear
2:55 PM 30.2 °F 19.8 °F 19.4 °F 64% 30.13 in 10.0 mi WNW 13.8 mph 20.7 mph N/A   Clear
3:55 PM 28.4 °F 18.5 °F 19.4 °F 69% 30.14 in 10.0 mi WNW 11.5 mph - N/A   Clear
4:15 PM 26.6 °F 16.8 °F 17.6 °F 69% 30.15 in 10.0 mi WNW 10.4 mph - N/A   Clear
4:35 PM 24.8 °F 13.4 °F 17.6 °F 74% 30.15 in 10.0 mi WNW 12.7 mph - N/A   Clear
4:55 PM 24.8 °F 13.4 °F 15.8 °F 69% 30.15 in 10.0 mi West 12.7 mph - N/A   Clear
5:15 PM 23.0 °F 11.1 °F 15.8 °F 74% 30.15 in 10.0 mi WNW 12.7 mph - N/A   Clear
5:35 PM 23.0 °F 10.6 °F 15.8 °F 74% 30.15 in 10.0 mi WNW 13.8 mph - N/A   Clear
5:55 PM 23.0 °F 11.7 °F 17.6 °F 80% 30.15 in 10.0 mi WNW 11.5 mph - N/A   Clear
6:15 PM 24.8 °F 13.4 °F 17.6 °F 74% 30.14 in 10.0 mi WNW 12.7 mph - N/A   Clear
6:35 PM 23.0 °F 11.1 °F 15.8 °F 74% 30.15 in 10.0 mi WNW 12.7 mph - N/A   Clear
6:55 PM 21.2 °F 10.9 °F 14.0 °F 74% 30.15 in 10.0 mi WNW 9.2 mph - N/A   Clear
7:15 PM 19.4 °F 9.5 °F 14.0 °F 80% 30.15 in 10.0 mi WNW 8.1 mph - N/A   Clear
7:35 PM 19.4 °F 7.9 °F 14.0 °F 80% 30.14 in 10.0 mi NW 10.4 mph - N/A   Clear
7:55 PM 17.6 °F 7.3 °F 12.2 °F 79% 30.14 in 10.0 mi NW 8.1 mph - N/A   Clear
8:35 PM 15.8 °F 3.4 °F 10.4 °F 79% 30.14 in 10.0 mi SSW 10.4 mph - N/A   Clear
9:15 PM 15.8 °F 2.7 °F 10.4 °F 79% 30.13 in 10.0 mi SW 11.5 mph - N/A   Clear
9:35 PM 15.8 °F 3.4 °F 8.6 °F 73% 30.13 in 10.0 mi West 10.4 mph - N/A   Clear
9:55 PM 17.6 °F 7.3 °F 12.2 °F 79% 30.13 in 10.0 mi WSW 8.1 mph - N/A   Clear
10:15 PM 17.6 °F 10.7 °F 10.4 °F 73% 30.13 in 10.0 mi SSW 4.6 mph - N/A   Clear
10:35 PM 15.8 °F 8.6 °F 10.4 °F 79% 30.13 in 10.0 mi SSE 4.6 mph - N/A   Clear
10:55 PM 15.8 °F - 12.2 °F 86% 30.13 in 10.0 mi Calm Calm - N/A   Clear
11:15 PM 15.8 °F - 10.4 °F 79% 30.13 in 10.0 mi Calm Calm - N/A   Clear
11:35 PM 12.2 °F 6.1 °F 6.8 °F 79% 30.12 in 10.0 mi South 3.5 mph - N/A   Clear
11:55 PM 15.8 °F 8.6 °F 10.4 °F 79% 30.11 in 10.0 mi SSW 4.6 mph - N/A   Clear